Location: NCO
(38.4404°N, 77.1340°W)
Time: 12:30:32
(UTC-04:00)

Hubble Space Telescope - Visible Passes

Search period start: 20 July 2017 00:00
Search period end: 30 July 2017 00:00
Orbit: 538 x 542 km, 28.5° (Epoch: 19 July)

Date Brightness Start Highest point End Pass type
(mag) Time Alt. Az. Time Alt. Az. Time Alt. Az.
20 Jul 2.5 22:01:44 10° SW 22:04:28 17° S 22:04:38 17° S visible
21 Jul 2.6 21:51:47 10° SW 21:54:16 16° SSW 21:54:57 15° S visible
22 Jul 2.8 21:41:56 10° SW 21:44:04 14° SSW 21:45:15 12° S visible
23 Jul 3.0 21:32:17 10° SW 21:33:50 12° SSW 21:35:25 10° S visible
